Regional Weather Roundup
Issued by NWS Jackson, KY

Home | Current Version | Previous Version | Graphics & Text | Print | Product List | Glossary On
Versions: 1 2 3 4 5 6 7 8 9 10 11 12 13 14 15 16 17 18 19 20 21 22 23 24 25 26 27 28 29 30 31 32 33 34 35 36 37 38 39 40 41 42 43 44 45 46 47 48 49 50
000
ASUS43 KJKL 250410
RWRJKL

EAST KENTUCKY HOURLY WEATHER ROUNDUP
NATIONAL WEATHER SERVICE JACKSON KY
1200 AM EDT SAT APR 25 2015

NOTE: "FAIR" INDICATES FEW OR NO CLOUDS BELOW 12,000 FEET WITH
NO SIGNIFICANT WEATHER AND/OR OBSTRUCTIONS TO VISIBILITY.

* THESE REPORTS ARE NOT UNDER NWS QUALITY CONTROL AND MAY NOT
  REPORT WEATHER SUCH AS PRECIPITATION AND FOG.

KYZ079-080-083-085-087-088-110-112-115-119-120-250500
...EASTERN KENTUCKY...

CITY           SKY/WX    TMP DP  RH WIND       PRES   REMARKS
JACKSON        CLOUDY    56  23  27 VRB3      29.92F
LONDON         CLOUDY    58  33  39 CALM      29.91F
SOMERSET*      CLOUDY    54  39  58 CALM      29.92F
MONTICELLO*    CLOUDY    55  45  69 CALM      29.93F
MIDDLESBORO*   CLOUDY    55  43  62 CALM      29.95F
HARLAN APT*    CLOUDY    54  36  50 E6        29.94F
HAZARD APT*    CLOUDY    54  32  43 CALM      29.92F
BLACK MTN*       N/A     50  23  34 SW14        N/A
PIKEVILLE APT* CLOUDY    55  23  28 CALM      29.92F
BIG SANDY*     CLOUDY    52  36  55 CALM      29.93F
MOREHEAD APT*  CLOUDY    55  25  30 CALM      29.93F
$$

KYZ035-036-041-042-044-050-067-078-099-250500
...CENTRAL KENTUCKY...

CITY           SKY/WX    TMP DP  RH WIND       PRES   REMARKS
MT STERLING*   CLOUDY    55  32  41 CALM      29.92F
FLEMING/MASON* CLOUDY    52  34  50 E5        29.94F
DANVILLE*      CLOUDY    52  43  71 CALM      29.91F
RICHMOND*      CLOUDY    54  36  50 NE5       29.92S
LEXINGTON      CLOUDY    55  34  45 E5        29.91F
FRANKFORT      CLOUDY    54  35  48 SE5       29.89F
$$

KYZ091>093-OHZ055-061-077-WVZ005-015-034-035-042-250500
...SOUTHERN OHIO/WEST VIRGINIA...

CITY           SKY/WX    TMP DP  RH WIND       PRES   REMARKS
COVINGTON      CLOUDY    54  32  43 SE7       29.90F
COLUMBUS       CLOUDY    51  33  50 CALM      29.95S
DAYTON         CLOUDY    54  31  41 E8        29.92F
WILMINGTON     CLOUDY    50  35  56 E5        29.93F
HUNTINGTON     CLOUDY    50  29  44 E5        29.93F
CHARLESTON     CLOUDY    45  32  60 NE3       29.95S
PINEVILLE*     CLOUDY    44  36  73 MISG      29.99F
BECKLEY        CLOUDY    44  22  41 CALM      29.96F
BLUEFIELD      MOCLDY    51  11  20 CALM      29.96F
$$

VAZ002-007-008-TNZ017-027-036-066-071-250500
...SOUTHWEST VIRGINIA/EAST TENNESSEE...

CITY           SKY/WX    TMP DP  RH WIND       PRES   REMARKS
WISE*          CLOUDY    54  25  32 S3        29.95F
JONESVILLE*    CLOUDY    54  41  62 CALM      29.96F
ABINGDON*      CLOUDY    52  33  48 CALM      29.95F
BRISTOL        CLOUDY    50  39  66 CALM      29.95F
KNOXVILLE      CLOUDY    56  39  53 N3        29.93F
OAK RIDGE      CLOUDY    56  41  57 CALM      29.95F
CROSSVILLE     CLOUDY    58  31  35 S6        29.92F
NASHVILLE      LGT RAIN  55  50  83 S7        29.90F
$$

...KEY TO REMARKS...
VSB - VISIBILITY IN MILES
WCI - WIND CHILL INDEX
HX  - HEAT INDEX

$$



USA.gov is the U.S. government's official web portal to all federal, state and local government web resources and services.